This is the latest recevied weather packets stored in our database for station/object DL3TR-13. If no packets are shown the sender has not sent any weather packets the latest 10 day(s).
| Time | Temp. | Humidity | Pressure | Rain* | Wind** | Luminosity | Snow |
|---|---|---|---|---|---|---|---|
| 1777906990 | 21.67° C | 39% | 1009.3 hPa | 0 mm | - | 301 W/m² | - |
| 1777906391 | 21.67° C | 40% | 1009.3 hPa | 0 mm | - | 283 W/m² | - |
| 1777905791 | 21.11° C | 41% | 1009.4 hPa | 0 mm | - | 309 W/m² | - |
| 1777905191 | 21.11° C | 42% | 1009.4 hPa | 0 mm | - | 258 W/m² | - |
| 1777904590 | 21.11° C | 41% | 1009.4 hPa | 0 mm | - | 272 W/m² | - |
| 1777903991 | 20.56° C | 42% | 1009.5 hPa | 0 mm | - | 272 W/m² | - |
| 1777903391 | 21.11° C | 41% | 1009.6 hPa | 0 mm | - | 209 W/m² | - |
| 1777902790 | 21.11° C | 43% | 1009.6 hPa | 0 mm | - | 221 W/m² | - |
| 1777902190 | 21.11° C | 43% | 1009.6 hPa | 0 mm | - | 281 W/m² | - |
| 1777901591 | 21.11° C | 38% | 1009.7 hPa | 0 mm | - | 243 W/m² | - |
| 1777900991 | 21.67° C | 42% | 1009.8 hPa | 0 mm | - | 302 W/m² | - |
| 1777900391 | 21.67° C | 45% | 1010 hPa | 0 mm | - | 345 W/m² | - |
| 1777899791 | 21.67° C | 44% | 1010.1 hPa | 0 mm | - | 431 W/m² | - |
| 1777899190 | 21.67° C | 45% | 1010.1 hPa | 0 mm | - | 341 W/m² | - |
| 1777898591 | 21.67° C | 46% | 1010.1 hPa | 0 mm | - | 441 W/m² | - |
| 1777897997 | 22.22° C | 44% | 1010.2 hPa | 0 mm | - | 508 W/m² | - |
| 1777897390 | 21.11° C | 43% | 1010.3 hPa | 0 mm | - | 561 W/m² | - |
| 1777896790 | 21.11° C | 44% | 1010.3 hPa | 0 mm | - | 338 W/m² | - |
| 1777896190 | 21.67° C | 44% | 1010.4 hPa | 0 mm | - | 373 W/m² | - |
| 1777895590 | 21.67° C | 44% | 1010.3 hPa | 0 mm | - | 388 W/m² | - |
| 1777894990 | 21.67° C | 42% | 1010.5 hPa | 0 mm | - | 657 W/m² | - |
| 1777894390 | 21.67° C | 45% | 1010.6 hPa | 0 mm | - | 554 W/m² | - |
| 1777893790 | 21.67° C | 46% | 1010.6 hPa | 0 mm | - | 629 W/m² | - |
| 1777893191 | 21.11° C | 44% | 1010.7 hPa | 0 mm | - | 599 W/m² | - |
| 1777892590 | 21.11° C | 45% | 1010.7 hPa | 0 mm | - | 587 W/m² | - |
* Rain latest hour (hover to see other rain measurements)
** Current wind speed in m/s (hover to see current wind gust speed)